Hourly Data Report for July 17, 2021

CARIBOU POINT (AUT)
NOVA SCOTIA
Current Station Operator: ECCC - MSC

45°46'00.000" N
62°41'00.000" W
2.40 m
8200774
71415
WBK

Download Data

Hourly Data (July 2021)
Hourly Data Report for July 17, 2021
TIME
LST
Temp Definition
°C
Dew Point Definition
°C
Rel Hum Definition
%
Precip. Amount Definition
mm

Wind Dir Definition
10's deg

Wind Spd Definition
km/h
Visibility Definition
km
Stn Press Definition
kPa
Hmdx Definition


Wind Chill Definition


Weather Definition


00:00 21.8 19.9 89 0.0 25 8   101.36 29   LegendNANA
01:00 19.3 17.7 91 0.0 30 21   101.43     LegendNANA
02:00 19.0 17.8 93 0.0 29 21   101.45     LegendNANA
03:00 19.4 17.9 91 0.0 28 17   101.51     LegendNANA
04:00 19.1 18.0 93 0.0 27 7   101.58     LegendNANA
05:00 18.5 17.5 94 0.0 29 12   101.60     LegendNANA
06:00 18.3 17.1 93 0.0 30 14   101.66     LegendNANA
07:00 18.5 17.1 92 0.0 29 15   101.69     LegendNANA
08:00 19.1 17.3 90 0.0 30 16   101.74     LegendNANA
09:00 19.3 17.6 90 0.0 29 16   101.77     LegendNANA
10:00 19.4 17.6 90 0.0 30 11   101.78     LegendNANA
11:00 19.4 17.6 89 0.0 30 14   101.77     LegendNANA
12:00 21.1 18.3 84 0.0 31 9   101.75 27   LegendNANA
13:00 21.5 18.0 81 0.0 33 5   101.72 28   LegendNANA
14:00 21.5 17.4 77 0.0 35 6   101.71 27   LegendNANA
15:00 21.2 15.9 72 0.0 14 4   101.71 26   LegendNANA
16:00 22.0 14.6 63 0.0 0 1   101.69 26   LegendNANA
17:00 21.8 15.1 66 0.0 3 5   101.66 26   LegendNANA
18:00 21.2 14.9 67 0.0 6 5   101.65 25   LegendNANA
19:00 19.4 16.1 81 0.0 14 12   101.64     LegendNANA
20:00 19.7 15.0 74 0.0 16 11   101.65     LegendNANA
21:00 19.5 13.5 68 0.0 22 6   101.69     LegendNANA
22:00 20.8 15.4 71 0.0 23 7   101.71 25   LegendNANA
23:00 20.2 16.5 80 0.0 23 9   101.74 25   LegendNANA

Notes on Data Quality.

Legend

  • E = Estimated
  • M = Missing
  • NA = Not Available*
  • [empty] = Indicates an unobserved value
Date modified: